Flag for Colombia Weather past 2 weeks in Medellin, Colombia

Now
68 °F

Scattered clouds.


Feels Like: 68 °F
Forecast: N/A
Wind: 9 mph from Northeast

Location: Rionegro / J. M. Cordova

Current Time: Jan 25, 2015 at 3:59:18 PM

Latest Report: Jan 25, 2015 at 3:00 PM


Visibility: N/A

Pressure: 30.18 "Hg

Humidity: 60%

Dew point: 54 °F

Location of MedellinLocation

Historic Weather in Medellin — Graph

°F

Medellin temperature yesterday

Maximum temperature yesterday: 68 °F (at 11:00 AM)
Minimum temperature yesterday: 57 °F (at 7:00 AM)
Average temperature yesterday: 60 °F

Past Weeks' High & Low Weather Summary

 TemperatureHumidityPressure
High73 °F (Jan 11, 2:00 PM)100% (Jan 11, 4:00 AM)30.38 "Hg (Jan 11, 4:00 AM)
Low54 °F (Jan 12, 4:00 AM)36% (Jan 10, 4:00 PM)30.17 "Hg (Jan 20, 4:00 PM)
Average62 °F82%30.28 "Hg
* Reported Jan 10 3:00 PM — Jan 25 3:00 PM, Medellin, Weather by CustomWeather, © 2014

Note: Actual official high and low records may vary slightly from our data, if they occured in-between our weather recording intervals... More about our weather records

Advertising

Medellin weather history for previous 24 hours

 ConditionsComfort  
Time TempWeatherWind HumidityBarometerVisibility
3:00 PM
Jan 25
68 °FScattered clouds.9 mph60%30.18 "HgN/A
2:00 PM64 °FBroken clouds.7 mph73%30.22 "HgN/A
12:00 PM64 °FScattered showers. Broken clouds.12 mph73%30.27 "HgN/A
11:00 AM66 °FPartly sunny.9 mph64%30.29 "HgN/A
10:00 AM64 °FPartly sunny.7 mph68%30.30 "HgN/A
9:00 AM63 °FPartly sunny.5 mph77%30.30 "HgN/A
8:00 AM59 °FPartly sunny.No wind88%30.27 "HgN/A
7:00 AM59 °FOvercast.No wind88%30.25 "HgN/A
6:00 AM57 °FPartly cloudy.No wind94%30.24 "Hg5 mi
5:30 AM59 °FPartly cloudy.3 mph88%30.24 "Hg5 mi
5:00 AM59 °FFog.No wind94%30.23 "Hg4 mi
3:00 AM59 °FFog.2 mph94%30.24 "Hg4 mi
2:00 AM59 °FFog.5 mph94%30.25 "Hg4 mi
1:00 AM59 °FFog.8 mph94%30.27 "Hg4 mi
12:00 AM59 °FFog.No wind94%30.28 "Hg4 mi
11:00 PM
Jan 24
59 °FPassing clouds.No wind94%30.28 "HgN/A
10:00 PM59 °FPassing clouds.3 mph94%30.24 "HgN/A
Weather by CustomWeather, © 2014

See weather overviewHow to use our weather pages